Location: North Evanston
(42.0634°N, 87.6976°W)
Time: 21:59:16
(UTC+00:00)

Transit 2A - Pass Details

Date: 11 May 2026
Orbit: 595 x 948 km, 66.7° (Epoch: 9 June)

Event Time Altitude Azimuth Distance (km) Brightness Sun altitude
Rises 01:05:31 0° 278° (W) 3,547 11.2 -1.8°
Reaches altitude 10° 01:10:36 10° 314° (NW) 2,531 10.3 -2.6°
Maximum altitude 01:11:59 11° 328° (NNW) 2,451 9.7 -2.9°
Drops below altitude 10° 01:13:20 10° 342° (NNW) 2,482 9.4 -3.1°
Sets 01:18:07 0° 19° (NNE) 3,314 9.4 -3.9°
